Location: Hobi?a Gr?di?te
(45.4833°N, 22.7833°E)
Time: 20:41:29
(UTC+00:00)

Radarsat Rocket - Pass Details

Date: 28 January 2023
Orbit: 933 x 1491 km, 100.6° (Epoch: 23 March)

Event Time Altitude Azimuth Distance (km) Brightness Sun altitude
Rises 16:35:01 0° 168° (SSE) 3,579 7.0 -11.7°
Reaches altitude 10° 16:37:22 10° 171° (S) 2,653 6.3 -12.1°
Maximum altitude 16:43:13 71° 255° (WSW) 1,037 4.3 -13.1°
Drops below altitude 10° 16:49:36 10° 340° (NNW) 2,890 6.6 -14.2°
Sets 16:52:17 0° 342° (NNW) 3,922 7.2 -14.6°
